Location: Caltech
(34.1382°N, 118.1253°W)
Time: 02:34:32
(UTC-07:00)

Cosmos 1980 Rocket - Visible Passes

Search period start: 26 April 2018 00:00
Search period end: 06 May 2018 00:00
Orbit: 831 x 848 km, 71.0° (Epoch: 25 April)

Date Brightness Start Highest point End Pass type
(mag) Time Alt. Az. Time Alt. Az. Time Alt. Az.
26 Apr 4.0 02:14:13 10° N 02:16:47 26° N 02:16:47 26° N visible
27 Apr 4.1 01:58:34 10° N 02:00:57 25° N 02:00:57 25° N visible
28 Apr 4.2 01:42:55 10° N 01:45:11 23° N 01:45:11 23° N visible
29 Apr 4.3 01:27:16 10° N 01:29:29 22° N 01:29:29 22° N visible
30 Apr 4.3 01:11:39 10° N 01:13:49 22° N 01:13:49 22° N visible
01 May 4.3 00:56:01 10° N 00:58:12 22° NNE 00:58:12 22° NNE visible
02 May 4.3 00:40:23 10° N 00:42:38 22° NNE 00:42:38 22° NNE visible
03 May 4.3 00:24:46 10° N 00:27:05 21° NNE 00:27:05 21° NNE visible
03 May 4.8 02:08:49 10° NW 02:08:50 10° NW 02:08:50 10° NW visible
04 May 4.3 00:09:09 10° N 00:11:35 21° NNE 00:11:35 21° NNE visible
04 May 4.7 01:53:02 10° NW 01:53:20 11° NW 01:53:20 11° NW visible
04 May 4.2 23:53:33 10° N 23:56:07 22° NNE 23:56:07 22° NNE visible
05 May 4.7 01:37:15 10° NW 01:37:52 13° NW 01:37:52 13° NW visible
05 May 4.2 23:37:57 10° N 23:40:39 21° NNE 23:40:39 21° NNE visible
